.
WxDataArchive / Data Records for 2015-09-02
2015-09-01 September 2015 2015-09-03

Data Records for Wednesday, 02 September 2015

Time	Temp	Chill	HIndex	Humid	Dewpt	 Wind 	HiWind	WindDir	Rain 	Barom
-----	----	-----	------	-----	-----	------	------	-------	-----	-----
00:00	73.9	73.9	73.9	83	68.4	0	0	---	0.00	30.020 
00:05	73.9	73.9	73.9	83	68.4	0	0	---	0.00	30.020 
00:10	73.9	73.9	73.9	83	68.4	0	0	---	0.00	30.020 
00:15	73.9	73.9	73.9	83	68.4	0	0	---	0.00	30.021 
00:20	73.9	73.9	73.9	83	68.4	0	0	---	0.00	30.021 
00:25	73.9	73.9	73.9	83	68.4	0	0	---	0.00	30.021 
00:30	73.7	73.7	73.7	83	68.2	0	0	---	0.00	30.025 
00:35	73.7	73.7	73.7	83	68.2	0	0	---	0.00	30.025 
00:40	73.5	73.5	73.5	84	68.4	0	0	---	0.00	30.025 
00:45	73.3	73.3	73.3	84	68.2	0	0	---	0.00	30.025 
00:50	73.3	73.3	73.3	84	68.2	0	0	---	0.00	30.025 
00:55	73.2	73.2	73.2	84	68.1	0	0	---	0.00	30.025 
01:00	73.0	73.0	73.0	84	67.9	0	0	---	0.00	30.024 
01:05	72.8	72.8	72.8	85	68.0	0	0	---	0.00	30.024 
01:10	72.8	72.8	72.8	85	68.0	0	0	---	0.00	30.024 
01:15	72.7	72.7	72.7	85	67.9	0	0	---	0.00	30.022 
01:20	72.5	72.5	72.5	85	67.7	0	0	---	0.00	30.022 
01:25	72.3	72.3	72.3	86	67.9	0	0	---	0.00	30.022 
01:30	72.1	72.1	72.1	87	68.0	0	0	---	0.00	30.020 
01:35	72.0	72.0	72.0	87	67.9	0	0	---	0.00	30.020 
01:40	71.8	71.8	71.8	87	67.7	0	0	---	0.00	30.020 
01:45	71.8	71.8	71.8	87	67.7	0	0	---	0.00	30.019 
01:50	71.6	71.6	71.6	88	67.8	0	0	---	0.00	30.019 
01:55	71.5	71.5	71.5	88	67.7	0	0	---	0.00	30.019 
02:00	71.3	71.3	71.3	88	67.6	0	0	---	0.00	30.020 
02:05	71.1	71.1	71.1	88	67.4	0	0	---	0.00	30.020 
02:10	70.9	70.9	70.9	88	67.2	0	0	---	0.00	30.020 
02:15	70.9	70.9	70.9	89	67.5	0	0	---	0.00	30.019 
02:20	70.8	70.8	70.8	89	67.4	0	0	---	0.00	30.019 
02:25	70.6	70.6	70.6	89	67.2	0	0	---	0.00	30.019 
02:30	70.4	70.4	70.4	90	67.3	0	0	---	0.00	30.020 
02:35	70.4	70.4	70.4	90	67.3	0	0	---	0.00	30.020 
02:40	70.3	70.3	70.3	90	67.2	0	0	---	0.00	30.020 
02:45	70.3	70.3	70.3	90	67.2	0	0	---	0.00	30.017 
02:50	70.1	70.1	70.1	90	67.0	0	0	---	0.00	30.017 
02:55	70.1	70.1	70.1	91	67.3	0	0	---	0.00	30.017 
03:00	69.9	69.9	69.9	91	67.1	0	0	---	0.00	30.015 
03:05	69.8	69.8	69.8	91	67.0	0	0	---	0.00	30.015 
03:10	69.6	69.6	69.6	91	66.8	0	0	---	0.00	30.015 
03:15	69.6	69.6	69.6	91	66.8	0	0	---	0.00	30.010 
03:20	69.6	69.6	69.6	91	66.8	0	0	---	0.00	30.010 
03:25	69.4	69.4	69.4	91	66.7	0	0	---	0.00	30.010 
03:30	69.4	69.4	69.4	91	66.7	0	0	---	0.00	30.011 
03:35	69.4	69.4	69.4	92	67.0	0	0	---	0.00	30.011 
03:40	69.4	69.4	69.4	92	67.0	0	0	---	0.00	30.011 
03:45	69.3	69.3	69.3	92	66.9	0	0	---	0.00	30.011 
03:50	69.3	69.3	69.3	92	66.9	0	0	---	0.00	30.011 
03:55	69.1	69.1	69.1	92	66.7	0	0	---	0.00	30.011 
04:00	69.1	69.1	69.1	92	66.7	0	0	---	0.00	30.010 
04:05	69.1	69.1	69.1	92	66.7	0	0	---	0.00	30.010 
04:10	69.1	69.1	69.1	92	66.7	0	0	---	0.00	30.010 
04:15	68.9	68.9	68.9	92	66.5	0	0	---	0.00	30.012 
04:20	68.9	68.9	68.9	92	66.5	0	0	---	0.00	30.012 
04:25	68.8	68.8	68.8	92	66.4	0	0	---	0.00	30.012 
04:30	68.8	68.8	68.8	92	66.4	0	0	---	0.00	30.011 
04:35	68.8	68.8	68.8	92	66.4	0	0	---	0.00	30.011 
04:40	68.8	68.8	68.8	92	66.4	0	0	---	0.00	30.011 
04:45	68.8	68.8	68.8	92	66.4	0	0	---	0.00	30.013 
04:50	68.6	68.6	68.6	93	66.5	0	0	---	0.00	30.013 
04:55	68.6	68.6	68.6	93	66.5	0	0	---	0.00	30.013 
05:00	68.6	68.6	68.6	93	66.5	0	0	---	0.00	30.014 
05:05	68.4	68.4	68.4	93	66.3	0	0	---	0.00	30.014 
05:10	68.4	68.4	68.4	93	66.3	0	0	---	0.00	30.014 
05:15	68.4	68.4	68.4	93	66.3	0	0	---	0.00	30.013 
05:20	68.4	68.4	68.4	93	66.3	0	0	---	0.00	30.013 
05:25	68.4	68.4	68.4	93	66.3	0	0	---	0.00	30.013 
05:30	68.4	68.4	68.4	93	66.3	0	0	---	0.00	30.013 
05:35	68.4	68.4	68.4	93	66.3	0	0	---	0.00	30.013 
05:40	68.3	68.3	68.3	93	66.2	0	0	---	0.00	30.013 
05:45	68.3	68.3	68.3	93	66.2	0	0	---	0.00	30.012 
05:50	68.3	68.3	68.3	93	66.2	0	0	---	0.00	30.012 
05:55	68.3	68.3	68.3	93	66.2	0	0	---	0.00	30.012 
06:00	68.1	68.1	68.1	93	66.0	0	0	---	0.00	30.010 
06:05	68.1	68.1	68.1	93	66.0	0	0	---	0.00	30.010 
06:10	68.1	68.1	68.1	93	66.0	0	0	---	0.00	30.010 
06:15	67.9	67.9	67.9	93	65.8	0	0	---	0.00	30.013 
06:20	67.9	67.9	67.9	93	65.8	0	0	---	0.00	30.013 
06:25	67.9	67.9	67.9	94	66.1	0	0	---	0.00	30.013 
06:30	67.8	67.8	67.8	94	66.0	0	0	---	0.00	30.017 
06:35	67.8	67.8	67.8	94	66.0	0	0	---	0.00	30.017 
06:40	67.6	67.6	67.6	94	65.8	0	0	---	0.00	30.017 
06:45	67.6	67.6	67.6	94	65.8	0	0	---	0.00	30.020 
06:50	67.4	67.4	67.4	94	65.6	0	0	---	0.00	30.020 
06:55	67.4	67.4	67.4	94	65.6	0	0	---	0.00	30.020 
07:00	67.6	67.6	67.6	94	65.8	0	0	---	0.00	30.023 
07:05	67.6	67.6	67.6	94	65.8	0	0	---	0.00	30.023 
07:10	67.4	67.4	67.4	94	65.6	0	0	---	0.00	30.023 
07:15	67.4	67.4	67.4	94	65.6	0	0	---	0.00	30.027 
07:20	67.4	67.4	67.4	94	65.6	0	0	---	0.00	30.027 
07:25	67.6	67.6	67.6	94	65.8	0	0	---	0.00	30.027 
07:30	67.6	67.6	67.6	94	65.8	0	0	---	0.00	30.030 
07:35	67.9	67.9	67.9	94	66.1	0	0	---	0.00	30.030 
07:40	68.1	68.1	68.1	94	66.3	0	0	---	0.00	30.030 
07:45	68.3	68.3	68.3	94	66.5	0	0	---	0.00	30.034 
07:50	68.4	68.4	68.4	94	66.6	0	0	---	0.00	30.034 
07:55	68.6	68.6	68.6	94	66.8	0	0	---	0.00	30.034 
08:00	68.6	68.6	68.6	94	66.8	0	0	---	0.00	30.035 
08:05	68.8	68.8	68.8	94	67.0	0	0	---	0.00	30.035 
08:10	68.9	68.9	68.9	94	67.1	0	0	---	0.00	30.035 
08:15	69.1	69.1	69.1	94	67.3	0	0	---	0.00	30.040 
08:20	69.4	69.4	69.4	94	67.6	0	0	---	0.00	30.040 
08:25	69.6	69.6	69.6	94	67.8	0	1	292	0.00	30.040 
08:30	70.1	70.1	70.1	94	68.3	0	1	292	0.00	30.041 
08:35	70.4	70.4	70.4	93	68.3	0	2	292	0.00	30.041 
08:40	70.8	70.8	70.8	93	68.7	0	2	292	0.00	30.041 
08:45	71.1	71.1	71.1	92	68.7	1	3	292	0.00	30.040 
08:50	71.5	71.5	71.5	91	68.7	0	2	292	0.00	30.040 
08:55	71.8	71.8	71.8	90	68.7	1	3	292	0.00	30.040 
09:00	72.1	72.1	72.1	89	68.7	0	2	292	0.00	30.039 
09:05	72.5	72.5	72.5	88	68.7	0	2	292	0.00	30.039 
09:10	72.7	72.7	72.7	87	68.6	1	3	292	0.00	30.039 
09:15	73.0	73.0	73.0	86	68.6	1	3	292	0.00	30.038 
09:20	73.5	73.5	73.5	86	69.0	0	3	292	0.00	30.038 
09:25	73.9	73.9	73.9	84	68.7	2	4	292	0.00	30.038 
09:30	74.2	74.2	74.2	84	69.0	1	4	292	0.00	30.037 
09:35	74.7	74.7	74.7	83	69.2	1	3	292	0.00	30.037 
09:40	75.1	75.1	75.5	82	69.2	2	5	292	0.00	30.037 
09:45	75.4	75.4	76.0	81	69.1	1	5	270	0.00	30.036 
09:50	76.0	76.0	76.9	81	69.7	0	2	270	0.00	30.036 
09:55	76.3	76.3	77.5	80	69.7	1	3	270	0.00	30.036 
10:00	76.7	76.7	78.1	79	69.7	1	3	270	0.00	30.037 
10:05	77.0	77.0	78.6	79	70.0	0	2	270	0.00	30.037 
10:10	77.4	77.4	79.3	78	70.0	1	3	270	0.00	30.037 
10:15	77.7	77.7	79.7	77	69.9	2	5	292	0.00	30.035 
10:20	77.9	77.9	80.0	76	69.7	2	6	292	0.00	30.035 
10:25	78.5	78.5	81.0	76	70.3	0	3	270	0.00	30.035 
10:30	78.8	78.8	81.5	75	70.2	1	3	270	0.00	30.037 
10:35	79.4	79.4	82.4	74	70.4	1	4	270	0.00	30.037 
10:40	79.8	79.8	83.1	74	70.8	1	3	270	0.00	30.037 
10:45	80.3	80.3	83.9	73	70.8	0	2	270	0.00	30.034 
10:50	80.7	80.7	84.3	71	70.4	1	3	292	0.00	30.034 
10:55	80.9	80.9	84.5	70	70.2	1	3	292	0.00	30.034 
11:00	81.1	81.1	85.0	71	70.8	1	3	292	0.00	30.036 
11:05	81.2	81.2	85.0	70	70.5	1	5	292	0.00	30.036 
11:10	81.6	81.6	85.7	70	70.8	2	4	292	0.00	30.036 
11:15	82.0	82.0	86.2	69	70.8	1	4	292	0.00	30.031 
11:20	82.0	82.0	86.0	68	70.4	2	4	292	0.00	30.031 
11:25	82.2	82.2	86.6	69	71.0	1	4	292	0.00	30.031 
11:30	82.6	82.6	86.9	67	70.5	1	3	292	0.00	30.029 
11:35	83.0	83.0	88.1	69	71.8	0	3	292	0.00	30.029 
11:40	83.2	83.2	88.0	67	71.1	1	4	292	0.00	30.029 
11:45	83.4	83.4	88.4	67	71.3	2	4	292	0.00	30.023 
11:50	83.8	83.8	88.8	66	71.2	1	4	292	0.00	30.023 
11:55	84.0	84.0	89.5	67	71.8	1	3	292	0.00	30.023 
12:00	84.3	84.3	89.8	66	71.7	1	5	292	0.00	30.020 
12:05	84.3	84.3	89.5	65	71.2	1	4	292	0.00	30.020 
12:10	84.5	84.5	89.6	64	71.0	2	5	292	0.00	30.020 
12:15	84.5	84.5	89.6	64	71.0	1	5	292	0.00	30.020 
12:20	84.7	84.7	89.6	63	70.7	1	4	292	0.00	30.020 
12:25	84.9	84.9	90.0	63	70.9	1	4	292	0.00	30.020 
12:30	84.9	84.9	89.7	62	70.4	2	4	292	0.00	30.018 
12:35	85.3	85.3	90.5	62	70.8	1	3	292	0.00	30.018 
12:40	85.7	85.7	92.0	64	72.1	1	3	292	0.00	30.018 
12:45	86.1	86.1	92.0	62	71.5	0	2	292	0.00	30.014 
12:50	86.3	86.3	91.3	59	70.2	1	3	292	0.00	30.014 
12:55	86.5	86.5	91.3	58	69.9	1	2	292	0.00	30.014 
13:00	87.0	87.0	92.3	58	70.4	1	2	292	0.00	30.003 
13:05	87.0	87.0	92.7	59	70.9	1	2	292	0.00	30.003 
13:10	87.2	87.2	91.9	56	69.6	1	5	292	0.00	30.003 
13:15	87.0	87.0	92.3	58	70.4	1	3	315	0.00	30.000 
13:20	87.4	87.4	93.0	58	70.8	0	2	315	0.00	30.000 
13:25	87.4	87.4	92.6	57	70.3	0	3	315	0.00	30.000 
13:30	87.6	87.6	91.8	54	68.9	1	3	315	0.00	29.987 
13:35	87.8	87.8	92.6	55	69.6	1	4	315	0.00	29.987 
13:40	87.8	87.8	92.6	55	69.6	1	3	315	0.00	29.987 
13:45	88.0	88.0	94.7	59	71.8	0	2	315	0.00	29.986 
13:50	88.4	88.4	93.3	54	69.6	0	2	315	0.00	29.986 
13:55	88.8	88.8	94.1	54	70.0	0	2	315	0.00	29.986 
14:00	88.8	88.8	93.2	52	68.9	0	2	315	0.00	29.982 
14:05	88.6	88.6	92.9	52	68.7	0	2	315	0.00	29.982 
14:10	88.0	88.0	91.8	52	68.1	1	4	292	0.00	29.982 
14:15	88.0	88.0	92.6	54	69.2	0	2	292	0.00	29.981 
14:20	88.4	88.4	93.3	54	69.6	1	3	292	0.00	29.981 
14:25	88.8	88.8	92.8	51	68.3	1	3	292	0.00	29.981 
14:30	89.0	89.0	94.5	54	70.2	0	4	292	0.00	29.976 
14:35	89.3	89.3	93.7	51	68.8	1	5	292	0.00	29.976 
14:40	89.5	89.5	94.5	52	69.5	1	3	292	0.00	29.976 
14:45	89.5	89.5	94.1	51	68.9	2	5	292	0.00	29.976 
14:50	89.0	89.0	93.2	51	68.5	2	5	292	0.00	29.976 
14:55	88.4	88.4	92.5	52	68.5	1	4	292	0.00	29.976 
15:00	88.0	88.0	92.2	53	68.7	1	3	292	0.00	29.972 
15:05	87.8	87.8	92.2	54	69.0	0	2	292	0.00	29.972 
15:10	87.4	87.4	91.1	53	68.1	1	4	292	0.00	29.972 
15:15	87.0	87.0	90.8	54	68.3	2	5	292	0.00	29.970 
15:20	87.0	87.0	91.1	55	68.8	1	3	292	0.00	29.970 
15:25	87.0	87.0	91.1	55	68.8	1	4	292	0.00	29.970 
15:30	87.0	87.0	90.8	54	68.3	2	4	292	0.00	29.963 
15:35	86.5	86.5	89.9	54	67.8	1	4	292	0.00	29.963 
15:40	86.3	86.3	89.9	55	68.2	1	3	292	0.00	29.963 
15:45	85.9	85.9	89.6	56	68.3	0	2	292	0.00	29.959 
15:50	85.7	85.7	89.2	56	68.2	0	2	292	0.00	29.959 
15:55	85.7	85.7	89.5	57	68.7	0	1	292	0.00	29.959 
16:00	85.7	85.7	89.5	57	68.7	0	2	292	0.00	29.956 
16:05	85.9	85.9	90.2	58	69.4	0	0	---	0.00	29.956 
16:10	85.9	85.9	90.6	59	69.9	0	1	292	0.00	29.956 
16:15	85.5	85.5	90.2	60	70.0	0	1	292	0.00	29.950 
16:20	85.1	85.1	90.1	62	70.6	0	1	292	0.00	29.950 
16:25	84.9	84.9	89.7	62	70.4	0	1	292	0.00	29.950 
16:30	84.9	84.9	89.7	62	70.4	0	1	292	0.00	29.945 
16:35	84.7	84.7	89.6	63	70.7	0	0	---	0.00	29.945 
16:40	84.5	84.5	89.0	62	70.0	0	1	292	0.00	29.945 
16:45	84.5	84.5	89.6	64	71.0	0	1	292	0.00	29.942 
16:50	84.5	84.5	89.0	62	70.0	0	1	292	0.00	29.942 
16:55	84.5	84.5	89.0	62	70.0	0	1	292	0.00	29.942 
17:00	84.5	84.5	89.0	62	70.0	0	1	292	0.00	29.939 
17:05	84.7	84.7	89.6	63	70.7	0	0	---	0.00	29.939 
17:10	84.7	84.7	89.0	61	69.7	0	1	292	0.00	29.939 
17:15	84.9	84.9	90.0	63	70.9	0	2	292	0.00	29.942 
17:20	84.7	84.7	90.0	64	71.1	1	3	315	0.00	29.942 
17:25	84.5	84.5	89.9	65	71.4	0	1	315	0.00	29.942 
17:30	84.1	84.1	88.8	64	70.6	1	2	315	0.00	29.942 
17:35	83.4	83.4	87.0	62	69.0	1	3	112	0.00	29.942 
17:40	82.6	82.6	85.3	60	67.3	1	3	112	0.00	29.942 
17:45	82.0	82.0	85.0	63	68.1	1	4	68	0.00	29.945 
17:50	81.4	81.4	83.9	62	67.1	1	3	90	0.00	29.945 
17:55	81.1	81.1	83.5	62	66.8	1	2	112	0.00	29.945 
18:00	80.9	80.9	83.4	63	67.1	0	3	112	0.00	29.942 
18:05	80.9	80.9	83.4	63	67.1	1	2	112	0.00	29.942 
18:10	80.9	80.9	83.7	65	68.0	0	4	90	0.00	29.942 
18:15	80.9	80.9	83.7	65	68.0	1	6	90	0.00	29.944 
18:20	80.9	80.9	83.7	65	68.0	0	2	112	0.00	29.944 
18:25	80.9	80.9	83.8	66	68.4	0	3	248	0.00	29.944 
18:30	80.7	80.7	83.5	66	68.3	1	4	112	0.00	29.936 
18:35	80.5	80.5	83.5	68	68.9	0	2	112	0.00	29.936 
18:40	80.1	80.1	82.9	68	68.6	1	5	90	0.00	29.936 
18:45	79.8	79.8	82.3	67	67.8	0	3	90	0.00	29.936 
18:50	79.8	79.8	82.4	68	68.3	0	1	112	0.00	29.936 
18:55	79.8	79.8	82.5	69	68.7	0	0	---	0.00	29.936 
19:00	79.8	79.8	82.6	70	69.1	0	1	112	0.00	29.932 
19:05	79.8	79.8	82.6	70	69.1	0	1	112	0.00	29.932 
19:10	79.8	79.8	82.5	69	68.7	0	0	---	0.00	29.932 
19:15	79.8	79.8	82.6	70	69.1	0	1	112	0.00	29.930 
19:20	79.9	79.9	82.8	70	69.2	0	0	---	0.00	29.930 
19:25	80.1	80.1	83.1	70	69.4	0	0	---	0.00	29.930 
19:30	80.1	80.1	83.2	71	69.8	0	0	---	0.00	29.929 
19:35	80.1	80.1	83.1	70	69.4	0	0	---	0.00	29.929 
19:40	80.1	80.1	83.2	71	69.8	0	0	---	0.00	29.929 
19:45	79.9	79.9	82.9	71	69.6	0	0	---	0.00	29.931 
19:50	79.9	79.9	83.0	72	70.0	0	0	---	0.00	29.931 
19:55	79.8	79.8	83.0	73	70.4	0	0	---	0.00	29.931 
20:00	79.6	79.6	82.6	73	70.2	0	0	---	0.00	29.931 
20:05	79.4	79.4	82.4	74	70.4	0	0	---	0.00	29.931 
20:10	79.2	79.2	82.1	74	70.2	0	0	---	0.00	29.931 
20:15	78.8	78.8	81.5	75	70.2	0	0	---	0.00	29.929 
20:20	78.6	78.6	81.1	75	70.0	0	0	---	0.00	29.929 
20:25	78.5	78.5	81.0	76	70.3	0	0	---	0.00	29.929 
20:30	78.3	78.3	80.7	76	70.1	0	0	---	0.00	29.934 
20:35	78.1	78.1	80.4	77	70.3	0	0	---	0.00	29.934 
20:40	77.9	77.9	80.1	78	70.5	0	0	---	0.00	29.934 
20:45	77.7	77.7	79.7	78	70.3	0	0	---	0.00	29.942 
20:50	77.4	77.4	79.3	79	70.4	0	0	---	0.00	29.942 
20:55	77.2	77.2	78.9	80	70.5	0	0	---	0.00	29.942 
21:00	77.0	77.0	78.6	80	70.3	0	0	---	0.00	29.945 
21:05	76.8	76.8	78.2	81	70.5	0	0	---	0.00	29.945 
21:10	76.7	76.7	78.0	81	70.4	0	0	---	0.00	29.945 
21:15	76.5	76.5	77.7	82	70.6	0	0	---	0.00	29.942 
21:20	76.3	76.3	77.3	82	70.4	0	0	---	0.00	29.942 
21:25	76.1	76.1	76.9	83	70.5	0	0	---	0.00	29.942 
21:30	76.0	76.0	76.7	83	70.4	0	0	---	0.00	29.948 
21:35	75.8	75.8	76.4	83	70.3	0	0	---	0.00	29.948 
21:40	75.8	75.8	76.3	84	70.6	0	0	---	0.00	29.948 
21:45	75.6	75.6	76.0	84	70.4	0	0	---	0.00	29.955 
21:50	75.4	75.4	75.7	84	70.2	0	0	---	0.00	29.955 
21:55	75.3	75.3	75.6	83	69.8	0	0	---	0.00	29.955 
22:00	75.1	75.1	75.5	82	69.2	0	0	---	0.00	29.958 
22:05	75.1	75.1	75.7	80	68.5	0	0	---	0.00	29.958 
22:10	75.1	75.1	75.8	79	68.1	0	0	---	0.00	29.958 
22:15	75.1	75.1	75.8	79	68.1	0	0	---	0.00	29.954 
22:20	75.3	75.3	76.1	79	68.3	0	0	---	0.00	29.954 
22:25	75.3	75.3	76.1	79	68.3	0	0	---	0.00	29.954 
22:30	75.3	75.3	76.1	79	68.3	0	0	---	0.00	29.947 
22:35	75.3	75.3	76.0	80	68.7	0	0	---	0.00	29.947 
22:40	75.1	75.1	75.6	81	68.9	0	0	---	0.00	29.947 
22:45	75.1	75.1	75.6	81	68.9	0	0	---	0.00	29.944 
22:50	74.9	74.9	74.9	81	68.7	0	0	---	0.00	29.944 
22:55	74.7	74.7	74.7	81	68.5	0	0	---	0.00	29.944 
23:00	74.7	74.7	74.7	82	68.8	0	0	---	0.00	29.945 
23:05	74.6	74.6	74.6	83	69.1	0	0	---	0.00	29.945 
23:10	74.4	74.4	74.4	84	69.2	0	0	---	0.00	29.945 
23:15	74.2	74.2	74.2	84	69.0	0	0	---	0.00	29.949 
23:20	74.0	74.0	74.0	85	69.2	0	0	---	0.00	29.949 
23:25	73.9	73.9	73.9	85	69.1	0	0	---	0.00	29.949 
23:30	73.9	73.9	73.9	86	69.4	0	0	---	0.00	29.953 
23:35	73.7	73.7	73.7	86	69.2	0	0	---	0.00	29.953 
23:40	73.5	73.5	73.5	86	69.0	0	0	---	0.00	29.953 
23:45	73.3	73.3	73.3	86	68.8	0	0	---	0.00	29.956 
23:50	73.2	73.2	73.2	86	68.7	0	0	---	0.00	29.956 
23:55	73.0	73.0	73.0	86	68.6	0	0	---	0.00	29.956 

CoCoRaHS
IN-AL-39
A2 Web Hosting
Creative Commons License
GoDaddy
search engine by freefind advanced

loaded 2018-11-13 18:09:29 • last modified 2010-11-18 10:43:29
Privacy PolicyDisclaimer
• wx.awcolley.com is powered by PmWiki v.2002016 •
• all content (unless otherwise noted) © 2018 A W Colley